Location: Cardiff
(53.7833°N, 113.6000°W)
Time: 21:49:30
(UTC+00:00)

Oscar 19 - Pass Details

Date: 07 December 2023
Orbit: 771 x 789 km, 98.9° (Epoch: 04 March)

Event Time Altitude Azimuth Distance (km) Brightness Sun altitude
Rises 10:54:36 0° 28° (NNE) 3,276 14.4 -40.1°
Reaches altitude 10° 10:57:56 10° 50° (NE) 2,346 13.7 -39.6°
Maximum altitude 11:00:56 15° 86° (E) 1,992 13.3 -39.2°
Drops below altitude 10° 11:03:56 10° 122° (ESE) 2,342 13.5 -38.8°
Sets 11:07:15 0° 145° (SE) 3,268 14.1 -38.3°
